CAPE
205 74 55 81 83 17 16 72 225 352 534 694 402 175 116 129 108 106 206 387 423 243 89 43 17 1 0 0 0 0 0 2
483 472 229 131 77 42 63 187 316 462 577 416 161 85 27 10 4 22 34 67 125 78 38 12 9 8 7 0 0 0 1 129
1079 955 760 645 552 262 228 318 375 415 417 254 98 90 3 5 0 34 0 17 48 50 37 0 0 0 10 48 31 4 253 275
1634 1518 1194 1179 900 522 416 435 411 374 389 282 220 413 447 480 184 47 0 0 0 0 0 0 0 0 233 117 134 400 465 369
1843 1936 1671 1625 1406 930 797 937 841 770 914 973 595 1349 1068 656 252 13 0 0 0 0 0 15 279 414 797 744 781 770 769 923
1764 2121 2058 1921 1813 1524 1358 1442 1488 1460 1503 1557 1371 1432 1087 1084 786 400 383 537 424 522 589 544 977 915 1091 1139 1247 1188 1074 1078
1551 1732 2088 1813 2120 1985 1686 1581 1538 1553 1855 1473 1056 1171 998 905 1157 962 824 799 868 869 950 844 961 1165 1140 1134 1249 1149 1023 933
1436 1496 2169 2135 2010 1761 1716 1667 1414 1241 1653 1194 1016 1361 1237 1143 999 1107 952 1019 990 1188 1358 1156 853 1028 737 681 573 476 317 234
1460 1387 1427 1632 1725 1563 1482 1520 1642 1270 1387 1358 1001 1438 1061 884 1069 782 1086 1205 1312 1168 783 854 476 602 302 120 263 27 28 8
1451 1462 915 872 1227 1657 1246 1249 1260 1254 1359 1466 1585 1087 1025 1345 1078 923 978 1018 801 389 0 0 0 0 0 0 0 0 0 0
1597 1337 1137 1064 1195 1331 1209 1249 1179 1270 1473 1474 1358 1252 1392 1123 750 653 490 29 0 0 0 0 0 0 0 0 0 0 0 0
1727 1424 1441 1354 1288 1370 1322 1158 1518 1627 1452 1354 1286 1248 1114 614 22 0 0 0 0 0 0 0 0 0 0 0 0 0 0 0
1929 1561 1542 1450 1425 1204 1159 1495 1444 1337 1114 652 364 0 0 0 0 0 0 0 0 0 0 0 0 0 0 0 0 0 0 0
2064 1802 1797 1663 1445 1290 1598 1295 865 669 218 12 0 0 0 0 0 0 0 0 0 0 0 0 0 0 0 0 0 0 0 0
2031 1891 1884 1582 1291 1490 1302 784 544 204 2 0 0 0 0 0 0 0 0 0 0 0 0 0 0 0 0 0 0 0 0 0
1938 1876 1860 1510 1388 1256 897 363 116 0 0 0 0 0 0 0 0 0 0 0 0 0 0 0 0 0 0 0 0 0 0 0
1551 1764 1636 1356 1162 800 537 133 0 0 0 0 0 0 0 0 0 0 0 0 0 0 0 0 0 0 0 0 0 0 0 0
1710 1736 1426 1108 997 556 213 63 0 0 0 0 0 0 0 0 0 0 0 0 0 0 0 0 0 0 0 0 0 0 0 0
1872 1774 1488 1419 1059 498 101 32 0 0 0 0 0 0 0 0 0 0 0 0 0 0 0 0 0 0 0 0 0 0 0 0
1707 1588 1503 1334 1221 328 117 32 0 0 0 0 0 0 0 0 0 0 0 0 0 0 0 0 0 0 0 0 0 0 0 0
CIN
-463 -514 -491 -452 -434 -524 -510 -409 -323 -273 -217 -170 -251 -356 -413 -405 -429 -427 -346 -236 -209 -287 -403 -473 -533 -148 0 0 0 0 0 -137
-372 -376 -422 -416 -435 -475 -421 -341 -282 -219 -179 -231 -342 -428 -509 -519 -561 -562 -520 -460 -376 -402 -460 -521 -525 -569 -596 -29 0 0 -25 -341
-253 -270 -288 -291 -289 -341 -338 -290 -256 -229 -219 -276 -398 -388 -136 -165 0 -501 0 -565 -492 -485 -500 0 0 0 -358 -462 -521 -168 -239 -184
-155 -165 -211 -172 -183 -275 -273 -254 -249 -243 -219 -250 -279 -180 -169 -170 -310 -436 0 0 0 0 0 0 0 -212 -268 -357 -368 -165 -92 -121
-128 -110 -124 -104 -86 -193 -189 -141 -138 -129 -88 -76 -100 -18 -20 -71 -205 -454 0 0 0 0 -64 -425 -222 -178 -79 -78 -50 -25 -17 -18
-108 -85 -82 -73 -37 -110 -101 -64 -35 -25 -13 -20 -10 -7 -13 -7 -22 -122 -137 -84 -117 -84 -88 -89 -7 -7 -11 -3 -3 -3 -11 -14
-159 -99 -77 -75 -19 -46 -63 -54 -41 -24 -3 -20 -23 -19 -15 -16 -5 -20 -12 -26 -14 -13 -10 -14 -14 -10 -2 -1 -3 -13 -26 -33
-183 -132 -70 -52 -52 -62 -40 -37 -71 -52 -15 -20 -22 -6 -8 -11 -12 -10 -6 -6 -12 -8 -3 -10 -18 -8 -24 -29 -54 -75 -111 -141
-172 -173 -156 -105 -80 -71 -53 -26 -38 -58 -25 -9 -22 -12 -17 -9 -18 -17 -11 -10 -14 -5 -9 -5 -30 -21 -74 -138 -87 -6 -5 -14
-162 -135 -245 -239 -141 -59 -94 -50 -23 -22 -18 -25 -13 -21 -13 -9 -17 -15 -7 -6 -11 -31 0 0 0 0 0 0 0 0 0 0
-180 -170 -181 -192 -139 -103 -74 -31 -20 -17 -27 -21 -22 -12 -5 -14 -16 -16 -55 -99 0 0 0 0 0 0 0 0 0 0 0 0
-149 -215 -135 -117 -101 -80 -43 -33 -16 -22 -22 -17 -11 -7 -11 -16 -44 0 0 0 0 0 0 0 0 0 0 0 0 0 0 0
-99 -154 -140 -87 -86 -101 -73 -34 -25 -19 -28 -82 -95 -1 0 0 0 0 0 0 0 0 0 0 0 0 0 0 0 0 0 0
-68 -75 -79 -79 -90 -88 -43 -46 -78 -74 -154 -166 0 0 0 0 0 0 0 0 0 0 0 0 0 0 0 0 0 0 0 0
-37 -46 -54 -82 -76 -60 -40 -68 -71 -134 -34 0 0 0 0 0 0 0 0 0 0 0 0 0 0 0 0 0 0 0 0 0
-25 -25 -46 -91 -54 -61 -92 -174 -187 0 0 0 0 0 0 0 0 0 0 0 0 0 0 0 0 0 0 0 0 0 0 0
-50 -21 -58 -76 -75 -98 -135 -189 0 0 0 0 0 0 0 0 0 0 0 0 0 0 0 0 0 0 0 0 0 0 0 0
-53 -27 -49 -102 -70 -115 -195 -232 0 0 0 0 0 0 0 0 0 0 0 0 0 0 0 0 0 0 0 0 0 0 0 0
-61 -36 -17 -22 -43 -114 -204 -215 0 0 0 0 0 0 0 0 0 0 0 0 0 0 0 0 0 0 0 0 0 0 0 0
-84 -56 -19 -20 -2 -111 -179 -196 0 0 0 0 0 0 0 0 0 0 0 0 0 0 0 0 0 0 0 0 0 0 0 0
Wind_Speed
14 14 12 11 12 12 12 12 12 11 11 11 11 12 12 13 13 13 14 14 14 14 14 14 14 13 13 12 11 9 6 7
14 13 11 9 7 9 9 9 9 8 8 9 10 10 11 11 12 12 13 13 13 13 13 13 12 11 11 11 10 10 8 8
13 13 11 9 7 6 6 6 7 6 7 7 8 9 9 9 9 9 12 12 12 12 12 12 10 10 10 10 13 13 10 15
11 12 11 10 6 4 4 4 4 4 4 6 8 7 9 7 10 10 10 11 11 11 11 11 12 11 10 9 12 14 21 17
10 11 11 10 8 3 2 1 2 4 4 3 5 12 8 11 10 10 11 10 11 9 11 14 15 16 13 14 15 22 22 24
8 9 10 9 6 2 1 0 1 1 4 3 6 11 14 14 11 8 9 10 10 8 9 12 16 21 19 19 16 16 18 19
8 8 8 7 2 2 1 2 3 1 2 2 6 8 7 9 12 8 12 11 13 15 16 18 20 20 19 20 22 23 25 26
7 7 4 6 1 1 2 1 0 2 4 0 2 9 12 11 12 14 14 15 15 16 18 19 19 16 18 17 18 18 19 20
5 6 4 5 2 2 3 4 1 2 2 4 5 10 10 9 12 12 13 16 16 15 16 14 14 14 15 17 16 22 23 25
6 5 6 6 6 3 4 5 6 3 4 5 8 10 8 9 10 12 11 12 11 14 17 19 22 24 24 25 27 30 29 29
8 7 7 6 6 4 3 3 3 4 7 8 8 7 7 8 9 10 11 12 14 17 19 21 23 25 25 27 31 28 29 30
11 8 8 8 6 4 4 3 4 5 5 6 5 6 5 6 8 10 12 13 15 18 20 22 23 25 27 29 30 31 29 28
12 11 10 9 8 7 6 5 4 3 2 4 4 5 5 7 7 9 12 13 15 18 21 24 25 26 30 32 30 28 28 32
13 12 12 11 9 8 7 6 4 4 5 3 4 5 6 8 8 9 13 11 14 18 20 24 25 28 30 34 33 33 31 35
14 13 14 12 11 10 8 6 5 4 3 3 4 5 6 6 8 9 11 14 14 18 21 24 27 28 29 31 34 34 40 29
13 14 15 15 13 13 12 10 8 6 5 4 4 3 5 6 7 9 11 13 16 19 22 24 27 30 31 31 32 34 39 40
15 14 16 17 16 15 14 12 9 7 6 4 3 3 3 5 6 8 10 13 16 19 22 25 26 29 31 33 33 33 33 38
13 14 16 18 18 17 17 15 12 10 8 6 4 4 4 4 6 8 11 15 17 20 23 25 27 29 29 30 32 34 36 36
13 14 17 18 19 19 18 16 14 12 10 8 6 6 5 5 7 9 12 15 19 21 24 26 27 28 29 31 30 31 32 34
14 16 17 19 20 20 18 16 14 13 11 9 7 6 6 5 8 10 14 17 20 22 24 26 27 28 29 29 30 30 30 32
Wind_Direction
110 111 107 105 102 100 96 90 80 72 59 44 44 43 32 45 44 43 47 49 52 52 51 51 55 59 60 65 68 76 132 166
115 117 113 105 95 99 95 84 71 52 30 35 38 35 32 26 35 41 38 35 37 37 36 42 50 64 65 64 59 54 77 72
118 122 121 117 105 97 88 77 72 46 23 11 17 6 38 39 40 44 26 24 27 22 22 30 42 46 48 58 45 42 46 16
121 128 130 128 115 108 94 79 70 70 37 1 347 14 356 31 4 19 15 8 12 16 14 16 13 27 29 40 30 24 358 6
129 132 134 136 133 122 114 72 84 107 106 31 2 328 345 347 354 360 1 9 1 15 9 358 358 356 17 15 11 351 352 348
132 135 137 142 132 141 132 200 97 98 142 127 349 332 325 327 333 356 9 13 15 22 11 5 352 342 349 352 0 1 358 356
147 148 145 148 128 121 106 295 308 342 1 144 337 340 342 346 341 360 345 358 353 349 348 341 340 344 350 348 347 348 343 342
156 160 154 152 308 265 288 314 257 219 322 68 350 332 333 333 333 333 335 335 343 343 342 342 344 351 352 355 355 355 352 350
190 191 193 192 239 265 258 289 318 321 278 316 327 329 329 334 331 334 336 338 340 346 350 359 1 359 358 356 357 352 349 345
222 225 207 198 204 276 275 289 289 295 320 329 326 326 331 334 336 337 345 351 0 354 348 343 341 342 345 346 345 341 340 341
213 225 223 215 211 255 248 238 244 299 311 320 328 336 338 343 347 348 349 352 348 343 342 342 342 340 340 342 339 342 341 340
205 223 227 220 232 238 250 241 283 305 317 331 345 344 348 357 352 345 342 346 347 343 341 341 341 340 339 339 341 340 342 342
207 222 224 219 224 228 240 250 257 296 323 340 353 351 351 346 348 345 344 346 344 344 342 340 339 340 337 337 341 344 346 344
207 220 221 217 230 231 237 238 254 276 303 318 342 352 349 343 353 353 345 352 348 346 345 340 340 342 339 337 338 339 339 339
213 220 224 225 229 227 228 235 248 271 272 297 326 337 339 347 347 346 341 346 347 343 342 340 338 341 345 342 338 336 334 341
219 222 220 223 221 220 214 217 226 249 266 286 311 333 333 345 343 343 341 344 344 343 345 342 340 337 340 341 339 337 333 332
224 228 218 221 218 224 223 229 240 247 254 259 292 318 337 343 348 351 347 349 345 342 341 340 340 338 338 337 337 337 337 333
230 224 223 220 216 221 222 223 232 234 242 247 271 289 308 326 340 342 343 343 342 340 339 338 338 337 337 339 337 337 336 335
230 223 225 228 222 221 222 228 230 226 228 243 253 273 288 307 323 332 335 337 337 337 336 336 337 337 339 338 339 338 337 335
229 225 232 229 217 219 219 230 232 231 235 242 250 264 280 301 319 326 330 332 334 334 335 336 338 339 339 340 340 338 339 338